This is the latest recevied weather packets stored in our database for station/object K5NWZ. If no packets are shown the sender has not sent any weather packets the latest 10 day(s).
| Time | Temp. | Humidity | Pressure | Rain* | Wind** | Luminosity | Snow |
|---|---|---|---|---|---|---|---|
| 1778024317 | 0° C | 96% | 1022.7 hPa | 0 mm | - | 32 W/m² | - |
| 1778024015 | 0° C | 96% | 1022.8 hPa | 0 mm | - | 26 W/m² | - |
| 1778023712 | 0° C | 96% | 1022.7 hPa | 0 mm | - | 23 W/m² | - |
| 1778023410 | 0.56° C | 96% | 1022.8 hPa | 0 mm | - | 28 W/m² | - |
| 1778023106 | 0° C | 96% | 1023 hPa | 0 mm | - | 30 W/m² | - |
| 1778022804 | 0° C | 96% | 1023 hPa | 0 mm | - | 30 W/m² | - |
| 1778022502 | 0° C | 96% | 1022.8 hPa | 0 mm | - | 30 W/m² | - |
| 1778022198 | 0° C | 96% | 1022.7 hPa | 0 mm | - | 28 W/m² | - |
| 1778021890 | 0° C | 96% | 1023 hPa | 0 mm | - | 29 W/m² | - |
| 1778021587 | 0° C | 96% | 1023.1 hPa | 1.78 mm | - | 33 W/m² | - |
| 1778021282 | 0.56° C | 96% | 1023 hPa | 1.78 mm | - | 39 W/m² | - |
| 1778020980 | 0.56° C | 96% | 1022.7 hPa | 0 mm | - | 44 W/m² | - |
| 1778020677 | 0.56° C | 96% | 1023 hPa | 0 mm | - | 42 W/m² | - |
| 1778020374 | 0.56° C | 96% | 1022.6 hPa | 0 mm | - | 48 W/m² | - |
| 1778020069 | 0.56° C | 96% | 1023 hPa | 0 mm | - | 46 W/m² | - |
| 1778019766 | 0.56° C | 96% | 1023 hPa | 1.27 mm | - | 43 W/m² | - |
| 1778019463 | 0.56° C | 96% | 1022.6 hPa | 1.27 mm | - | 66 W/m² | - |
| 1778019160 | 0.56° C | 96% | 1022.5 hPa | 1.78 mm | - | 85 W/m² | - |
| 1778018856 | 0.56° C | 96% | 1023 hPa | 1.78 mm | - | 79 W/m² | - |
| 1778018554 | 0.56° C | 96% | 1022.5 hPa | 0 mm | - | 83 W/m² | - |
| 1778018252 | 0.56° C | 96% | 1022.6 hPa | 1.78 mm | - | 90 W/m² | - |
| 1778017950 | 0.56° C | 96% | 1022.8 hPa | 1.78 mm | - | 81 W/m² | - |
| 1778017647 | 0.56° C | 96% | 1022.6 hPa | 0 mm | - | 118 W/m² | - |
| 1778017344 | 0.56° C | 96% | 1022.5 hPa | 1.27 mm | - | 100 W/m² | - |
| 1778017042 | 0.56° C | 96% | 1022.5 hPa | 1.27 mm | - | 109 W/m² | - |
* Rain latest hour (hover to see other rain measurements)
** Current wind speed in m/s (hover to see current wind gust speed)